Pittsfield, MA

5:41 AM EDT on August 24, 2019 (GMT -0400)
Pittsfield Municipal

Weather History for KPSF - June, 2019

Change the Weather History Date:

Monday, June 3, 2019

  Actual Average Record
Temperature  
Mean Temperature 52 °F 60 °F  
Max Temperature 62 °F 71 °F 92 °F (1934)
Min Temperature 42 °F 49 °F 33 °F (1946)
Degree Days  
Heating Degree Days 13 6  
Month to date heating degree days 17 18  
Since 1 June heating degree days 17 18  
Since 1 July heating degree days 6922 7378  
Cooling Degree Days 0 1  
Month to date cooling degree days 0 3  
Year to date cooling degree days 6 16  
Since 1 June cooling degree days 0 3  
Growing Degree Days 2 (Base 50)    
Moisture  
Dew Point 36 °F    
Average Humidity 52    
Maximum Humidity 77    
Minimum Humidity 36    
Precipitation  
Precipitation 0.00 in 0.18 in 2.32 in (2001)
Month to date precipitation 0.47 0.52  
Year to date precipitation 18.19 17.56  
Sea Level Pressure  
Sea Level Pressure 29.82 in    
Wind  
Wind Speed 9 mph ()    
Max Wind Speed 25 mph    
Max Gust Speed 34 mph    
Visibility 10.0 miles    
Events      
T = Trace of Precipitation, MM = Missing Value Source: Averaged Metar Reports

Daily Weather History Graph

Daily Weather History Graph

Search for Another Location

Airport or City:

Astronomy

Jun. 03, 2019 Rise Set
Actual Time 5:17 AM EDT 8:25 PM EDT
Civil Twilight 4:43 AM EDT 8:59 PM EDT
Nautical Twilight 4:00 AM EDT 9:43 PM EDT
Astronomical Twilight 3:08 AM EDT 10:35 PM EDT
Moon 5:37 AM EDT (6/3) 8:46 PM EDT (6/3)
Length of Visible Light 16h 15m
Length of Day
15h 07m
New Moon, 0% of the Moon is Illuminated
Jun 3
New Moon
Jun 10
First Quarter
Jun 17
Full
Jun 25
Last Quarter
Jul 2
New

Hourly Weather History & Observations

Time (EDT) Temp. Windchill Dew Point Humidity Pressure Visibility Wind Dir Wind Speed Gust Speed Precip Events Conditions
12:54 AM 52.0 °F - 44.1 °F 74% 29.71 in 10.0 mi West 5.8 mph - N/A   Partly Cloudy
1:54 AM 50.0 °F - 43.0 °F 77% 29.70 in 10.0 mi Calm Calm - N/A   Clear
2:54 AM 50.0 °F - 39.0 °F 66% 29.71 in 10.0 mi WNW 8.1 mph - N/A   Clear
3:54 AM 50.0 °F - 33.1 °F 52% 29.70 in 10.0 mi West 8.1 mph - N/A   Clear
4:54 AM 46.9 °F - 35.1 °F 63% 29.71 in 10.0 mi West 5.8 mph - N/A   Clear
5:54 AM 46.0 °F 41.9 °F 35.1 °F 66% 29.74 in 10.0 mi West 8.1 mph - N/A   Clear
6:54 AM 50.0 °F - 36.0 °F 59% 29.76 in 10.0 mi WSW 9.2 mph - N/A   Clear
7:54 AM 53.1 °F - 34.0 °F 48% 29.78 in 10.0 mi West 11.5 mph - N/A   Clear
8:54 AM 55.0 °F - 34.0 °F 45% 29.79 in 10.0 mi West 11.5 mph 21.9 mph N/A   Clear
9:54 AM 57.9 °F - 36.0 °F 44% 29.79 in 10.0 mi West 17.3 mph 27.6 mph N/A   Scattered Clouds
10:54 AM 59.0 °F - 33.1 °F 38% 29.78 in 10.0 mi West 13.8 mph 27.6 mph N/A   Partly Cloudy
11:54 AM 60.1 °F - 33.1 °F 36% 29.81 in 10.0 mi West 15.0 mph 25.3 mph N/A   Partly Cloudy
12:54 PM 61.0 °F - 34.0 °F 36% 29.81 in 10.0 mi West 15.0 mph 25.3 mph N/A   Partly Cloudy
1:54 PM 60.1 °F - 34.0 °F 38% 29.82 in 10.0 mi WNW 12.7 mph 24.2 mph N/A   Scattered Clouds
2:54 PM 61.0 °F - 35.1 °F 38% 29.82 in 10.0 mi West 21.9 mph 29.9 mph N/A   Mostly Cloudy
3:54 PM 60.1 °F - 34.0 °F 38% 29.83 in 10.0 mi WNW 16.1 mph 33.4 mph N/A   Scattered Clouds
4:54 PM 59.0 °F - 37.0 °F 44% 29.86 in 10.0 mi WNW 15.0 mph 32.2 mph N/A   Mostly Cloudy
5:54 PM 55.9 °F - 37.0 °F 49% 29.90 in 10.0 mi WNW 15.0 mph 24.2 mph N/A   Mostly Cloudy
6:54 PM 54.0 °F - 36.0 °F 51% 29.93 in 10.0 mi NW 10.4 mph 20.7 mph N/A   Overcast
7:54 PM 53.1 °F - 36.0 °F 52% 29.94 in 10.0 mi WNW 11.5 mph - N/A   Mostly Cloudy
8:54 PM 51.1 °F - 33.1 °F 50% 29.96 in 10.0 mi WNW 10.4 mph - N/A   Clear
9:54 PM 48.0 °F - 35.1 °F 61% 29.98 in 10.0 mi West 9.2 mph - N/A   Clear
10:54 PM 48.9 °F - 33.1 °F 54% 29.98 in 10.0 mi West 8.1 mph - N/A   Clear
11:54 PM 46.9 °F - 33.1 °F 59% 29.98 in 10.0 mi WSW 5.8 mph - N/A   Clear